FIN7WG EFHK-EGLL

Flight info

Callsign FIN7WG
Flight time 2h 52m
Altitude 38000
Route ADIVO Y365 POGOK DCT TIPIX DCT UPGAS DCT TIPAN DCT WECOW DCT BINBO DCT AKOKO N866 BUKUT P7 BARMI
Aircraft A20N/M-SDE2E3FGHIRWXY/LB1

Departure

Time 2026-05-07 14:05
Airport Helsinki Vantaa Airport (EFHK)

Arrival

Time 2026-05-07 16:57
Airport London Heathrow Airport (EGLL)
Time Latitude Longitude Altitude Speed Heading
2026-05-07 13:30 60.31719 24.96153 164 ft 0 kts 136°
2026-05-07 13:57 60.31729 24.96133 163 ft 2 kts 136°
2026-05-07 13:57 60.31744 24.96104 163 ft 3 kts 134°
2026-05-07 13:57 60.31758 24.96073 163 ft 3 kts 124°
2026-05-07 13:57 60.31768 24.96037 163 ft 3 kts 101°
2026-05-07 13:58 60.31767 24.96001 163 ft 3 kts 51°
2026-05-07 13:58 60.31766 24.95996 163 ft 0 kts 47°
2026-05-07 14:00 60.31785 24.96038 163 ft 9 kts 47°
2026-05-07 14:00 60.31848 24.96173 163 ft 5 kts 39°
2026-05-07 14:00 60.31854 24.96166 164 ft 3 kts 332°
2026-05-07 14:01 60.31922 24.96028 163 ft 19 kts 315°
2026-05-07 14:01 60.32037 24.95825 164 ft 24 kts 319°
2026-05-07 14:01 60.32165 24.95587 163 ft 26 kts 318°
2026-05-07 14:01 60.32302 24.95326 165 ft 28 kts 319°
2026-05-07 14:02 60.32479 24.95190 169 ft 27 kts 341°
2026-05-07 14:02 60.32659 24.95067 175 ft 27 kts 342°
2026-05-07 14:02 60.32825 24.94964 180 ft 27 kts 342°
2026-05-07 14:02 60.32910 24.94889 183 ft 11 kts 320°
2026-05-07 14:03 60.32972 24.94774 191 ft 13 kts 320°
2026-05-07 14:03 60.33045 24.94641 197 ft 15 kts 316°
2026-05-07 14:03 60.33066 24.94602 195 ft 0 kts 316°
2026-05-07 14:03 60.33084 24.94565 199 ft 9 kts 316°
2026-05-07 14:04 60.33127 24.94412 190 ft 15 kts 255°
2026-05-07 14:04 60.33044 24.94230 192 ft 20 kts 227°
2026-05-07 14:04 60.32923 24.93968 183 ft 46 kts 227°
2026-05-07 14:04 60.32538 24.93114 174 ft 114 kts 227°
2026-05-07 14:05 60.31898 24.91683 349 ft 144 kts 226°
2026-05-07 14:05 60.31259 24.90210 1033 ft 136 kts 226°
2026-05-07 14:05 60.30657 24.88732 1683 ft 139 kts 237°
2026-05-07 14:05 60.30349 24.86782 2072 ft 162 kts 262°
2026-05-07 14:06 60.30411 24.84389 2528 ft 185 kts 280°
2026-05-07 14:06 60.30800 24.81765 3015 ft 207 kts 290°
2026-05-07 14:06 60.31374 24.78946 3682 ft 226 kts 290°
2026-05-07 14:06 60.31736 24.75733 4490 ft 245 kts 276°
2026-05-07 14:07 60.31708 24.72170 5322 ft 259 kts 269°
2026-05-07 14:07 60.31612 24.68499 6431 ft 264 kts 269°
2026-05-07 14:07 60.31516 24.64784 7529 ft 265 kts 269°
2026-05-07 14:07 60.31426 24.61072 8665 ft 266 kts 268°
2026-05-07 14:08 60.31339 24.57310 9729 ft 270 kts 267°
2026-05-07 14:08 60.31251 24.53535 10591 ft 279 kts 267°
2026-05-07 14:08 60.31150 24.49425 11047 ft 301 kts 267°
2026-05-07 14:08 60.31039 24.45058 11560 ft 318 kts 266°
2026-05-07 14:09 60.30924 24.40631 12529 ft 319 kts 266°
2026-05-07 14:09 60.30808 24.36158 13590 ft 319 kts 266°
2026-05-07 14:09 60.30690 24.31677 14505 ft 321 kts 266°
2026-05-07 14:09 60.30570 24.27166 15348 ft 323 kts 266°
2026-05-07 14:10 60.30447 24.22626 16193 ft 326 kts 266°
2026-05-07 14:10 60.30321 24.18062 17027 ft 328 kts 266°
2026-05-07 14:10 60.30193 24.13448 17866 ft 330 kts 265°
2026-05-07 14:10 60.30062 24.08790 18639 ft 333 kts 265°
2026-05-07 14:11 60.29931 24.04183 19341 ft 335 kts 265°
2026-05-07 14:11 60.29778 23.99482 20053 ft 336 kts 263°
2026-05-07 14:11 60.29411 23.94806 20760 ft 338 kts 257°
2026-05-07 14:11 60.28895 23.90173 21475 ft 340 kts 257°
2026-05-07 14:12 60.28385 23.85491 22161 ft 342 kts 257°
2026-05-07 14:12 60.27877 23.80797 22825 ft 345 kts 257°
2026-05-07 14:12 60.27363 23.76052 23513 ft 347 kts 257°
2026-05-07 14:12 60.26844 23.71286 24080 ft 350 kts 257°
2026-05-07 14:13 60.26319 23.66493 24635 ft 351 kts 256°
2026-05-07 14:13 60.25795 23.61728 25158 ft 354 kts 256°
2026-05-07 14:13 60.25259 23.56876 25682 ft 356 kts 256°
2026-05-07 14:13 60.24719 23.52002 26205 ft 358 kts 256°
2026-05-07 14:14 60.24173 23.47091 26704 ft 360 kts 256°
2026-05-07 14:14 60.23622 23.42158 27192 ft 363 kts 256°
2026-05-07 14:14 60.23064 23.37184 27667 ft 365 kts 256°
2026-05-07 14:14 60.22515 23.32303 28109 ft 367 kts 256°
2026-05-07 14:15 60.21942 23.27231 28564 ft 370 kts 256°
2026-05-07 14:15 60.21370 23.22180 29027 ft 371 kts 256°
2026-05-07 14:15 60.20792 23.17098 29434 ft 374 kts 256°
2026-05-07 14:15 60.20215 23.12050 29840 ft 376 kts 256°
2026-05-07 14:16 60.19625 23.06900 30236 ft 379 kts 256°
2026-05-07 14:16 60.19029 23.01719 30536 ft 382 kts 256°
2026-05-07 14:16 60.18425 22.96495 30845 ft 385 kts 256°
2026-05-07 14:16 60.17815 22.91232 31161 ft 388 kts 256°
2026-05-07 14:17 60.17197 22.85918 31544 ft 389 kts 256°
2026-05-07 14:17 60.16586 22.80687 31942 ft 390 kts 256°
2026-05-07 14:17 60.15961 22.75351 32341 ft 390 kts 256°
2026-05-07 14:17 60.15345 22.70117 32712 ft 391 kts 256°
2026-05-07 14:18 60.14716 22.64798 33082 ft 391 kts 256°
2026-05-07 14:18 60.14086 22.59484 33468 ft 392 kts 256°
2026-05-07 14:18 60.13450 22.54148 33835 ft 392 kts 256°
2026-05-07 14:18 60.12812 22.48825 34181 ft 393 kts 256°
2026-05-07 14:19 60.12171 22.43493 34466 ft 393 kts 256°
2026-05-07 14:19 60.11527 22.38144 34731 ft 394 kts 256°
2026-05-07 14:19 60.10881 22.32807 34987 ft 395 kts 256°
2026-05-07 14:19 60.10231 22.27455 35235 ft 396 kts 256°
2026-05-07 14:20 60.09576 22.22077 35486 ft 397 kts 256°
2026-05-07 14:20 60.09139 22.18509 35654 ft 398 kts 256°
2026-05-07 14:20 60.08477 22.13109 35890 ft 399 kts 256°
2026-05-07 14:20 60.07814 22.07716 36134 ft 400 kts 256°
2026-05-07 14:21 60.06928 22.00549 36440 ft 401 kts 256°
2026-05-07 14:21 60.06474 21.96889 36592 ft 401 kts 256°
2026-05-07 14:21 60.05797 21.91452 36814 ft 402 kts 256°
2026-05-07 14:21 60.05119 21.86015 37048 ft 403 kts 255°
2026-05-07 14:22 60.04215 21.78811 37320 ft 404 kts 255°
2026-05-07 14:22 60.03761 21.75207 37462 ft 404 kts 255°
2026-05-07 14:22 60.03069 21.69726 37671 ft 405 kts 255°
2026-05-07 14:22 60.02568 21.65769 37822 ft 405 kts 255°
2026-05-07 14:23 60.02026 21.61505 37974 ft 406 kts 255°
2026-05-07 14:23 60.01829 21.59953 38033 ft 406 kts 255°
2026-05-07 14:24 60.01753 21.59355 38052 ft 406 kts 255°
2026-05-07 14:24 60.01366 21.56319 38105 ft 407 kts 255°
2026-05-07 14:25 60.00077 21.46257 38104 ft 405 kts 255°
2026-05-07 14:25 59.98460 21.35451 38103 ft 406 kts 250°
2026-05-07 14:26 59.96411 21.25246 38104 ft 406 kts 249°
2026-05-07 14:26 59.94326 21.14838 38108 ft 406 kts 249°
2026-05-07 14:27 59.92227 21.04356 38107 ft 406 kts 249°
2026-05-07 14:27 59.90115 20.93894 38101 ft 406 kts 248°
2026-05-07 14:28 59.87992 20.83442 38106 ft 407 kts 248°
2026-05-07 14:28 59.86138 20.74360 38106 ft 407 kts 248°
2026-05-07 14:29 59.83994 20.63913 38107 ft 407 kts 248°
2026-05-07 14:29 59.81924 20.53873 38109 ft 407 kts 248°
2026-05-07 14:30 59.79963 20.44409 38110 ft 408 kts 248°
2026-05-07 14:30 59.77796 20.34000 38114 ft 408 kts 248°
2026-05-07 14:31 59.75614 20.23571 38114 ft 408 kts 248°
2026-05-07 14:31 59.73437 20.13220 38113 ft 408 kts 248°
2026-05-07 14:32 59.71257 20.02907 38112 ft 409 kts 248°
2026-05-07 14:32 59.69384 19.94087 38118 ft 409 kts 248°
2026-05-07 14:33 59.67163 19.83678 38115 ft 409 kts 248°
2026-05-07 14:33 59.65029 19.73724 38117 ft 409 kts 248°
2026-05-07 14:34 59.62789 19.63328 38113 ft 410 kts 248°
2026-05-07 14:34 59.60546 19.52970 38112 ft 410 kts 248°
2026-05-07 14:35 59.58295 19.42625 38111 ft 410 kts 248°
2026-05-07 14:35 59.56293 19.33469 38112 ft 410 kts 248°
2026-05-07 14:36 59.54370 19.24709 38109 ft 410 kts 248°
2026-05-07 14:36 59.52153 19.14659 38125 ft 411 kts 248°
2026-05-07 14:37 59.49884 19.04418 38114 ft 411 kts 248°
2026-05-07 14:37 59.46421 18.88889 38107 ft 412 kts 247°
2026-05-07 14:38 59.44121 18.78638 38109 ft 412 kts 247°
2026-05-07 14:38 59.41792 18.68309 38108 ft 412 kts 247°
2026-05-07 14:39 59.39467 18.58044 38098 ft 413 kts 247°
2026-05-07 14:39 59.37111 18.47694 38097 ft 413 kts 247°
2026-05-07 14:40 59.34816 18.37663 38092 ft 413 kts 247°
2026-05-07 14:40 59.32940 18.29497 38092 ft 414 kts 247°
2026-05-07 14:41 59.30667 18.19642 38081 ft 414 kts 247°
2026-05-07 14:41 59.28312 18.09481 38082 ft 414 kts 247°
2026-05-07 14:42 59.25918 17.99202 38079 ft 414 kts 247°
2026-05-07 14:42 59.23538 17.89028 38079 ft 414 kts 247°
2026-05-07 14:43 59.21197 17.79072 38086 ft 414 kts 246°
2026-05-07 14:43 59.18796 17.68903 38094 ft 414 kts 246°
2026-05-07 14:44 59.16388 17.58758 38095 ft 415 kts 246°
2026-05-07 14:44 59.14072 17.49042 38097 ft 414 kts 246°
2026-05-07 14:45 59.11637 17.38875 38094 ft 414 kts 246°
2026-05-07 14:45 59.09260 17.28993 38090 ft 414 kts 246°
2026-05-07 14:46 59.07015 17.19707 38087 ft 414 kts 246°
2026-05-07 14:46 59.04561 17.09594 38089 ft 414 kts 246°
2026-05-07 14:47 59.02109 16.99541 38086 ft 414 kts 246°
2026-05-07 14:47 58.99642 16.89470 38085 ft 413 kts 246°
2026-05-07 14:48 58.97158 16.79378 38083 ft 413 kts 246°
2026-05-07 14:48 58.94698 16.69423 38084 ft 413 kts 246°
2026-05-07 14:49 58.92413 16.60202 38084 ft 413 kts 246°
2026-05-07 14:49 58.90036 16.50702 38086 ft 412 kts 245°
2026-05-07 14:50 58.87515 16.40709 38080 ft 412 kts 246°
2026-05-07 14:50 58.85062 16.30685 38075 ft 412 kts 246°
2026-05-07 14:51 58.82614 16.20738 38073 ft 411 kts 246°
2026-05-07 14:51 58.80329 16.11519 38071 ft 411 kts 246°
2026-05-07 14:52 58.77849 16.01562 38067 ft 411 kts 246°
2026-05-07 14:52 58.75402 15.91785 38061 ft 411 kts 246°
2026-05-07 14:53 58.73210 15.83061 38063 ft 412 kts 246°
2026-05-07 14:53 58.70828 15.73639 38061 ft 412 kts 246°
2026-05-07 14:54 58.68731 15.65392 38062 ft 412 kts 245°
2026-05-07 14:54 58.68065 15.62777 38062 ft 412 kts 245°
2026-05-07 14:55 58.66361 15.56105 38063 ft 412 kts 245°
2026-05-07 14:55 58.64066 15.47151 38063 ft 413 kts 245°
2026-05-07 14:56 58.61524 15.37276 38062 ft 413 kts 245°
2026-05-07 14:56 58.59113 15.27948 38068 ft 414 kts 245°
2026-05-07 14:57 58.56544 15.18054 38071 ft 414 kts 245°
2026-05-07 14:57 58.54859 15.11586 38071 ft 415 kts 245°
2026-05-07 14:58 58.52600 15.02943 38074 ft 415 kts 245°
2026-05-07 14:58 58.49987 14.92991 38084 ft 416 kts 245°
2026-05-07 14:59 58.47605 14.83955 38082 ft 416 kts 245°
2026-05-07 14:59 58.44991 14.74081 38086 ft 416 kts 245°
2026-05-07 15:00 58.42364 14.64202 38067 ft 417 kts 245°
2026-05-07 15:00 58.39735 14.54356 38084 ft 417 kts 244°
2026-05-07 15:01 58.37112 14.44576 38092 ft 417 kts 244°
2026-05-07 15:01 58.34468 14.34762 38085 ft 417 kts 244°
2026-05-07 15:02 58.32403 14.27128 38083 ft 417 kts 244°
2026-05-07 15:02 58.30356 14.19585 38087 ft 417 kts 244°
2026-05-07 15:03 58.27684 14.09775 38087 ft 417 kts 244°
2026-05-07 15:03 58.25895 14.03230 38093 ft 417 kts 244°
2026-05-07 15:04 58.24955 13.99798 38090 ft 417 kts 244°
2026-05-07 15:04 58.22267 13.90016 38086 ft 417 kts 244°
2026-05-07 15:05 58.19580 13.80279 38084 ft 417 kts 244°
2026-05-07 15:05 58.17036 13.71100 38085 ft 417 kts 244°
2026-05-07 15:06 58.14416 13.61683 38085 ft 418 kts 244°
2026-05-07 15:06 58.11695 13.51942 38083 ft 418 kts 244°
2026-05-07 15:07 58.11198 13.50169 38086 ft 418 kts 244°
2026-05-07 15:07 58.10671 13.48290 38085 ft 418 kts 244°
2026-05-07 15:08 58.08843 13.41781 38085 ft 418 kts 243°
2026-05-07 15:08 58.06100 13.32047 38085 ft 418 kts 243°
2026-05-07 15:09 58.03355 13.22347 38091 ft 419 kts 243°
2026-05-07 15:09 58.00620 13.12725 38083 ft 419 kts 243°
2026-05-07 15:10 57.98329 13.04695 38086 ft 419 kts 243°
2026-05-07 15:10 57.96417 12.98015 38085 ft 419 kts 243°
2026-05-07 15:11 57.93632 12.88321 38088 ft 420 kts 243°
2026-05-07 15:11 57.90863 12.78722 38086 ft 420 kts 243°
2026-05-07 15:12 57.88577 12.70824 38086 ft 420 kts 243°
2026-05-07 15:12 57.86503 12.63686 38087 ft 421 kts 243°
2026-05-07 15:13 57.83707 12.54095 38081 ft 421 kts 243°
2026-05-07 15:13 57.80884 12.44453 38084 ft 421 kts 243°
2026-05-07 15:14 57.78053 12.34823 38077 ft 421 kts 243°
2026-05-07 15:14 57.75213 12.25201 38081 ft 422 kts 242°
2026-05-07 15:15 57.72361 12.15579 38069 ft 422 kts 242°
2026-05-07 15:15 57.69521 12.06035 38072 ft 422 kts 242°
2026-05-07 15:16 57.66913 11.97310 38095 ft 422 kts 242°
2026-05-07 15:16 57.65501 11.92595 38090 ft 422 kts 242°
2026-05-07 15:17 57.63732 11.86700 38122 ft 422 kts 242°
2026-05-07 15:17 57.62275 11.81858 38119 ft 423 kts 242°
2026-05-07 15:18 57.59411 11.72375 38096 ft 423 kts 242°
2026-05-07 15:18 57.56533 11.62883 38120 ft 423 kts 242°
2026-05-07 15:19 57.53631 11.53349 38130 ft 423 kts 242°
2026-05-07 15:19 57.50714 11.43807 38125 ft 423 kts 242°
2026-05-07 15:20 57.47813 11.34355 38114 ft 423 kts 242°
2026-05-07 15:20 57.44883 11.24847 38122 ft 424 kts 242°
2026-05-07 15:21 57.41946 11.15352 38121 ft 424 kts 241°
2026-05-07 15:21 57.39686 11.08074 38125 ft 424 kts 241°
2026-05-07 15:22 57.36749 10.98649 38121 ft 424 kts 241°
2026-05-07 15:22 57.33786 10.89177 38123 ft 425 kts 241°
2026-05-07 15:23 57.31314 10.81304 38121 ft 425 kts 241°
2026-05-07 15:23 57.28611 10.72727 38118 ft 425 kts 241°
2026-05-07 15:24 57.25617 10.63261 38124 ft 426 kts 241°
2026-05-07 15:24 57.23637 10.57020 38121 ft 426 kts 241°
2026-05-07 15:25 57.20664 10.47683 38123 ft 426 kts 240°
2026-05-07 15:25 57.17641 10.38228 38118 ft 427 kts 240°
2026-05-07 15:26 57.15260 10.30805 38118 ft 427 kts 240°
2026-05-07 15:26 57.12237 10.21416 38109 ft 427 kts 240°
2026-05-07 15:27 57.09191 10.11993 38108 ft 427 kts 240°
2026-05-07 15:27 57.06149 10.02619 38105 ft 427 kts 240°
2026-05-07 15:28 57.03100 9.93258 38104 ft 428 kts 240°
2026-05-07 15:28 57.00034 9.83885 38109 ft 428 kts 240°
2026-05-07 15:29 56.96987 9.74605 38104 ft 428 kts 240°
2026-05-07 15:29 56.93878 9.65173 38104 ft 428 kts 240°
2026-05-07 15:30 56.90816 9.55921 38106 ft 428 kts 240°
2026-05-07 15:30 56.88930 9.50238 38106 ft 429 kts 240°
2026-05-07 15:31 56.86330 9.42429 38109 ft 429 kts 239°
2026-05-07 15:31 56.83267 9.33258 38103 ft 429 kts 239°
2026-05-07 15:32 56.80676 9.25533 38104 ft 429 kts 239°
2026-05-07 15:32 56.77551 9.16244 38101 ft 429 kts 239°
2026-05-07 15:33 56.74420 9.06972 38105 ft 429 kts 239°
2026-05-07 15:33 56.71314 8.97811 38106 ft 429 kts 239°
2026-05-07 15:34 56.68177 8.88597 38107 ft 429 kts 239°
2026-05-07 15:34 56.65637 8.81158 38106 ft 429 kts 239°
2026-05-07 15:35 56.62793 8.72857 38107 ft 430 kts 239°
2026-05-07 15:35 56.59676 8.63795 38113 ft 430 kts 239°
2026-05-07 15:36 56.56495 8.54580 38112 ft 430 kts 239°
2026-05-07 15:36 56.53329 8.45443 38115 ft 430 kts 238°
2026-05-07 15:37 56.50134 8.36256 38119 ft 430 kts 238°
2026-05-07 15:37 56.46934 8.27093 38120 ft 431 kts 238°
2026-05-07 15:38 56.43738 8.17973 38119 ft 431 kts 238°
2026-05-07 15:38 56.41122 8.10535 38123 ft 431 kts 238°
2026-05-07 15:39 56.37939 8.01517 38122 ft 432 kts 238°
2026-05-07 15:39 56.35554 7.94778 38124 ft 432 kts 238°
2026-05-07 15:40 56.32318 7.85669 38123 ft 432 kts 238°
2026-05-07 15:40 56.29571 7.77962 38124 ft 432 kts 238°
2026-05-07 15:41 56.26313 7.68853 38126 ft 432 kts 238°
2026-05-07 15:41 56.23064 7.59804 38127 ft 433 kts 238°
2026-05-07 15:42 56.19785 7.50704 38125 ft 433 kts 238°
2026-05-07 15:42 56.16506 7.41639 38128 ft 433 kts 237°
2026-05-07 15:43 56.13220 7.32587 38124 ft 433 kts 237°
2026-05-07 15:43 56.09917 7.23524 38129 ft 433 kts 237°
2026-05-07 15:44 56.07005 7.15561 38129 ft 433 kts 237°
2026-05-07 15:44 56.03709 7.06578 38127 ft 433 kts 237°
2026-05-07 15:45 56.00391 6.97569 38127 ft 433 kts 237°
2026-05-07 15:45 55.97509 6.89773 38127 ft 434 kts 237°
2026-05-07 15:46 55.92536 6.76374 38124 ft 434 kts 237°
2026-05-07 15:47 55.89205 6.67442 38124 ft 434 kts 237°
2026-05-07 15:47 55.85844 6.58462 38124 ft 434 kts 237°
2026-05-07 15:48 55.82505 6.49573 38125 ft 434 kts 236°
2026-05-07 15:48 55.79143 6.40655 38126 ft 434 kts 236°
2026-05-07 15:49 55.76084 6.32570 38129 ft 435 kts 236°
2026-05-07 15:49 55.72742 6.23766 38132 ft 435 kts 236°
2026-05-07 15:50 55.69375 6.14929 38127 ft 435 kts 236°
2026-05-07 15:50 55.66410 6.07172 38126 ft 435 kts 236°
2026-05-07 15:51 55.63269 5.98984 38128 ft 435 kts 236°
2026-05-07 15:51 55.59867 5.90144 38129 ft 435 kts 236°
2026-05-07 15:52 55.56447 5.81290 38132 ft 435 kts 236°
2026-05-07 15:52 55.53041 5.72504 38124 ft 435 kts 236°
2026-05-07 15:53 55.49987 5.64653 38126 ft 436 kts 236°
2026-05-07 15:53 55.46894 5.56726 38125 ft 436 kts 236°
2026-05-07 15:54 55.43478 5.48001 38127 ft 436 kts 236°
2026-05-07 15:54 55.40021 5.39191 38127 ft 436 kts 235°
2026-05-07 15:55 55.36586 5.30459 38128 ft 436 kts 235°
2026-05-07 15:55 55.33131 5.21705 38130 ft 436 kts 235°
2026-05-07 15:56 55.30156 5.14192 38128 ft 436 kts 235°
2026-05-07 15:56 55.26548 5.05641 38125 ft 436 kts 228°
2026-05-07 15:57 55.22116 4.98393 38120 ft 436 kts 217°
2026-05-07 15:57 55.16904 4.92890 38116 ft 437 kts 208°
2026-05-07 15:58 55.12495 4.88743 38116 ft 437 kts 209°
2026-05-07 15:58 55.07186 4.83728 38117 ft 437 kts 208°
2026-05-07 15:59 55.01779 4.78656 38119 ft 438 kts 208°
2026-05-07 15:59 54.96532 4.73757 38121 ft 438 kts 208°
2026-05-07 16:00 54.91150 4.68747 38125 ft 439 kts 208°
2026-05-07 16:00 54.85788 4.63772 38128 ft 440 kts 208°
2026-05-07 16:01 54.80387 4.58775 38122 ft 439 kts 208°
2026-05-07 16:01 54.74981 4.53789 38121 ft 440 kts 208°
2026-05-07 16:02 54.69574 4.48817 38120 ft 440 kts 208°
2026-05-07 16:02 54.64346 4.44024 38120 ft 440 kts 208°
2026-05-07 16:03 54.58928 4.39071 38118 ft 439 kts 208°
2026-05-07 16:03 54.53500 4.34126 38115 ft 439 kts 208°
2026-05-07 16:04 54.48687 4.29752 38116 ft 439 kts 208°
2026-05-07 16:04 54.43277 4.24851 38115 ft 439 kts 208°
2026-05-07 16:05 54.37873 4.19969 38114 ft 439 kts 208°
2026-05-07 16:05 54.32467 4.15101 38113 ft 439 kts 208°
2026-05-07 16:06 54.27970 4.11061 38111 ft 439 kts 208°
2026-05-07 16:06 54.22550 4.06207 38111 ft 439 kts 208°
2026-05-07 16:07 54.18383 4.02484 38113 ft 439 kts 208°
2026-05-07 16:07 54.13036 3.97720 38111 ft 439 kts 208°
2026-05-07 16:08 54.07617 3.92906 38113 ft 439 kts 207°
2026-05-07 16:08 54.02221 3.88125 38112 ft 439 kts 207°
2026-05-07 16:09 53.96791 3.83329 38116 ft 439 kts 207°
2026-05-07 16:09 53.91383 3.78568 38116 ft 440 kts 207°
2026-05-07 16:10 53.86834 3.74573 38117 ft 440 kts 207°
2026-05-07 16:10 53.81074 3.69529 38117 ft 440 kts 207°
2026-05-07 16:11 53.75632 3.64777 38120 ft 440 kts 207°
2026-05-07 16:11 53.70189 3.60040 38124 ft 440 kts 207°
2026-05-07 16:12 53.64867 3.55420 38121 ft 440 kts 207°
2026-05-07 16:12 53.59461 3.50741 38121 ft 439 kts 207°
2026-05-07 16:13 53.54050 3.46072 38121 ft 439 kts 207°
2026-05-07 16:13 53.48594 3.41377 38118 ft 439 kts 207°
2026-05-07 16:14 53.43157 3.36713 38113 ft 439 kts 207°
2026-05-07 16:14 53.37723 3.32063 38108 ft 439 kts 207°
2026-05-07 16:15 53.32304 3.27442 38106 ft 438 kts 207°
2026-05-07 16:15 53.28338 3.24068 38102 ft 438 kts 207°
2026-05-07 16:16 53.22903 3.19454 38101 ft 438 kts 207°
2026-05-07 16:16 53.17669 3.15018 38096 ft 438 kts 207°
2026-05-07 16:17 53.12223 3.10414 38097 ft 438 kts 207°
2026-05-07 16:17 53.06789 3.05843 38101 ft 438 kts 207°
2026-05-07 16:18 53.01391 3.01319 38102 ft 437 kts 207°
2026-05-07 16:18 52.95942 2.96764 38096 ft 437 kts 207°
2026-05-07 16:19 52.90508 2.92233 38101 ft 437 kts 207°
2026-05-07 16:19 52.85057 2.87701 38102 ft 437 kts 207°
2026-05-07 16:20 52.79645 2.83214 37973 ft 438 kts 207°
2026-05-07 16:20 52.76922 2.80961 37701 ft 437 kts 207°
2026-05-07 16:20 52.74287 2.78784 37239 ft 438 kts 207°
2026-05-07 16:20 52.71550 2.76522 36464 ft 441 kts 207°
2026-05-07 16:21 52.68847 2.74290 35810 ft 440 kts 207°
2026-05-07 16:21 52.66105 2.72030 35091 ft 440 kts 206°
2026-05-07 16:21 52.63816 2.70144 34489 ft 440 kts 206°
2026-05-07 16:21 52.61068 2.67884 33557 ft 443 kts 206°
2026-05-07 16:22 52.58311 2.65621 32790 ft 441 kts 206°
2026-05-07 16:22 52.55564 2.63371 31939 ft 442 kts 206°
2026-05-07 16:22 52.52805 2.61114 31163 ft 441 kts 206°
2026-05-07 16:22 52.50086 2.58892 30599 ft 436 kts 206°
2026-05-07 16:23 52.47904 2.57111 30265 ft 429 kts 206°
2026-05-07 16:23 52.45210 2.54916 30020 ft 437 kts 206°
2026-05-07 16:23 52.42476 2.52693 29834 ft 439 kts 206°
2026-05-07 16:23 52.39754 2.50484 29601 ft 434 kts 206°
2026-05-07 16:24 52.37047 2.48288 29446 ft 432 kts 206°
2026-05-07 16:24 52.34351 2.46103 29290 ft 433 kts 207°
2026-05-07 16:24 52.31643 2.43913 29127 ft 432 kts 207°
2026-05-07 16:24 52.29186 2.41928 28983 ft 429 kts 207°
2026-05-07 16:25 52.26612 2.39851 28831 ft 427 kts 207°
2026-05-07 16:25 52.23949 2.37708 28680 ft 428 kts 207°
2026-05-07 16:25 52.21312 2.35589 28525 ft 428 kts 207°
2026-05-07 16:25 52.18646 2.33449 28369 ft 425 kts 207°
2026-05-07 16:26 52.15989 2.31319 28214 ft 424 kts 207°
2026-05-07 16:26 52.13351 2.29143 28066 ft 424 kts 210°
2026-05-07 16:26 52.10889 2.26526 27906 ft 421 kts 218°
2026-05-07 16:26 52.08668 2.23405 27757 ft 419 kts 225°
2026-05-07 16:27 52.06722 2.19921 27607 ft 419 kts 230°
2026-05-07 16:27 52.04831 2.16372 27454 ft 417 kts 230°
2026-05-07 16:27 52.02927 2.12821 27314 ft 416 kts 229°
2026-05-07 16:27 52.01021 2.09283 27147 ft 416 kts 229°
2026-05-07 16:28 51.99115 2.05758 26996 ft 414 kts 229°
2026-05-07 16:28 51.97238 2.02296 26864 ft 413 kts 229°
2026-05-07 16:28 51.95625 1.99324 26735 ft 412 kts 229°
2026-05-07 16:28 51.93755 1.95883 26600 ft 412 kts 229°
2026-05-07 16:29 51.92125 1.92889 26500 ft 411 kts 229°
2026-05-07 16:29 51.90498 1.89902 26367 ft 411 kts 229°
2026-05-07 16:29 51.88632 1.86481 26232 ft 409 kts 229°
2026-05-07 16:29 51.86751 1.83038 26099 ft 409 kts 229°
2026-05-07 16:30 51.84861 1.79583 25963 ft 408 kts 229°
2026-05-07 16:30 51.82987 1.76160 25832 ft 407 kts 229°
2026-05-07 16:30 51.81110 1.72739 25701 ft 406 kts 229°
2026-05-07 16:30 51.79290 1.69423 25575 ft 405 kts 229°
2026-05-07 16:31 51.77412 1.66005 25387 ft 405 kts 230°
2026-05-07 16:31 51.75807 1.62314 25132 ft 402 kts 242°
2026-05-07 16:31 51.74738 1.58139 24800 ft 401 kts 254°
2026-05-07 16:31 51.74235 1.53720 24116 ft 404 kts 264°
2026-05-07 16:32 51.73960 1.49168 23378 ft 404 kts 264°
2026-05-07 16:32 51.73691 1.44694 22789 ft 397 kts 264°
2026-05-07 16:32 51.73418 1.40284 22192 ft 390 kts 264°
2026-05-07 16:32 51.73141 1.35959 21607 ft 384 kts 264°
2026-05-07 16:33 51.72868 1.31760 21041 ft 379 kts 264°
2026-05-07 16:33 51.72591 1.27557 20478 ft 374 kts 264°
2026-05-07 16:33 51.72315 1.23393 19905 ft 373 kts 264°
2026-05-07 16:33 51.72039 1.19256 19348 ft 370 kts 264°
2026-05-07 16:34 51.71762 1.15126 18765 ft 367 kts 264°
2026-05-07 16:34 51.71487 1.11049 18221 ft 363 kts 264°
2026-05-07 16:34 51.71216 1.07049 17658 ft 362 kts 264°
2026-05-07 16:34 51.70981 1.03592 17194 ft 359 kts 263°
2026-05-07 16:35 51.70726 0.99872 16686 ft 356 kts 263°
2026-05-07 16:35 51.70452 0.95896 16217 ft 354 kts 263°
2026-05-07 16:35 51.70182 0.91981 15999 ft 352 kts 263°
2026-05-07 16:35 51.69984 0.89130 15865 ft 354 kts 263°
2026-05-07 16:36 51.69719 0.85339 15666 ft 353 kts 263°
2026-05-07 16:36 51.69445 0.81451 15468 ft 351 kts 263°
2026-05-07 16:36 51.69169 0.77564 15267 ft 343 kts 263°
2026-05-07 16:36 51.68905 0.73835 15073 ft 330 kts 263°
2026-05-07 16:37 51.68648 0.70232 14867 ft 318 kts 263°
2026-05-07 16:37 51.68400 0.66750 14669 ft 307 kts 263°
2026-05-07 16:37 51.68157 0.63351 14470 ft 297 kts 263°
2026-05-07 16:37 51.67930 0.60190 14298 ft 288 kts 263°
2026-05-07 16:38 51.67701 0.57014 14189 ft 274 kts 263°
2026-05-07 16:38 51.67521 0.54521 13948 ft 265 kts 263°
2026-05-07 16:38 51.67375 0.52516 13599 ft 263 kts 263°
2026-05-07 16:38 51.67166 0.49636 13039 ft 262 kts 263°
2026-05-07 16:39 51.66954 0.46723 12479 ft 260 kts 263°
2026-05-07 16:39 51.66747 0.43905 11961 ft 258 kts 263°
2026-05-07 16:39 51.66538 0.41063 11439 ft 256 kts 264°
2026-05-07 16:39 51.66327 0.38206 10918 ft 255 kts 264°
2026-05-07 16:40 51.66121 0.35409 10411 ft 254 kts 263°
2026-05-07 16:40 51.65913 0.32615 9924 ft 252 kts 263°
2026-05-07 16:40 51.65704 0.29805 9362 ft 251 kts 263°
2026-05-07 16:40 51.65498 0.27045 8824 ft 250 kts 263°
2026-05-07 16:41 51.65289 0.24264 8299 ft 249 kts 263°
2026-05-07 16:41 51.65081 0.21494 7786 ft 248 kts 263°
2026-05-07 16:41 51.64876 0.18766 7406 ft 243 kts 263°
2026-05-07 16:41 51.64697 0.16399 7153 ft 244 kts 263°
2026-05-07 16:42 51.64500 0.13742 7016 ft 242 kts 264°
2026-05-07 16:42 51.64345 0.11042 6926 ft 242 kts 265°
2026-05-07 16:42 51.64242 0.08943 6850 ft 243 kts 265°
2026-05-07 16:42 51.64130 0.06646 6753 ft 242 kts 265°
2026-05-07 16:43 51.63997 0.03997 6655 ft 242 kts 265°
2026-05-07 16:43 51.63858 0.01326 6579 ft 243 kts 264°
2026-05-07 16:43 51.63710 -0.01414 6457 ft 242 kts 264°
2026-05-07 16:43 51.63564 -0.04086 6364 ft 241 kts 264°
2026-05-07 16:44 51.63414 -0.06773 6268 ft 241 kts 264°
2026-05-07 16:44 51.63266 -0.09446 6185 ft 240 kts 264°
2026-05-07 16:44 51.63117 -0.12112 6093 ft 240 kts 265°
2026-05-07 16:44 51.63011 -0.14013 6028 ft 240 kts 265°
2026-05-07 16:45 51.62860 -0.16695 5937 ft 239 kts 265°
2026-05-07 16:45 51.62713 -0.19311 5844 ft 238 kts 265°
2026-05-07 16:45 51.62561 -0.21996 5758 ft 237 kts 265°
2026-05-07 16:45 51.62412 -0.24610 5663 ft 236 kts 265°
2026-05-07 16:46 51.62263 -0.27238 5581 ft 236 kts 265°
2026-05-07 16:46 51.62112 -0.29862 5490 ft 235 kts 265°
2026-05-07 16:46 51.61957 -0.32561 5375 ft 258 kts 265°
2026-05-07 16:46 51.61790 -0.35489 5270 ft 268 kts 265°
2026-05-07 16:47 51.61616 -0.38478 5166 ft 265 kts 265°
2026-05-07 16:47 51.61449 -0.41343 5081 ft 265 kts 265°
2026-05-07 16:47 51.61277 -0.44279 4976 ft 264 kts 265°
2026-05-07 16:47 51.61106 -0.47183 4877 ft 264 kts 265°
2026-05-07 16:48 51.60934 -0.50094 4781 ft 263 kts 265°
2026-05-07 16:48 51.60762 -0.53003 4680 ft 263 kts 265°
2026-05-07 16:48 51.60592 -0.55820 4530 ft 262 kts 264°
2026-05-07 16:48 51.60040 -0.58632 4163 ft 263 kts 246°
2026-05-07 16:49 51.59252 -0.61280 4020 ft 263 kts 245°
2026-05-07 16:49 51.58451 -0.63951 3997 ft 265 kts 245°
2026-05-07 16:49 51.57653 -0.66618 3995 ft 264 kts 245°
2026-05-07 16:49 51.56853 -0.69291 3995 ft 264 kts 246°
2026-05-07 16:50 51.56062 -0.71915 4000 ft 265 kts 246°
2026-05-07 16:50 51.55256 -0.74591 3995 ft 265 kts 245°
2026-05-07 16:50 51.54447 -0.77253 3988 ft 267 kts 243°
2026-05-07 16:50 51.53319 -0.79534 3977 ft 266 kts 227°
2026-05-07 16:51 51.51815 -0.81152 3976 ft 251 kts 198°
2026-05-07 16:51 51.50194 -0.81473 3973 ft 230 kts 180°
2026-05-07 16:51 51.49174 -0.81477 3967 ft 217 kts 173°
2026-05-07 16:51 51.47790 -0.80366 3856 ft 202 kts 123°
2026-05-07 16:52 51.47572 -0.79797 3847 ft 195 kts 107°
2026-05-07 16:52 51.47405 -0.77441 4094 ft 196 kts 85°
2026-05-07 16:52 51.47490 -0.75226 3717 ft 198 kts 83°
2026-05-07 16:52 51.47556 -0.73168 3344 ft 186 kts 85°
2026-05-07 16:53 51.47578 -0.71503 3082 ft 183 kts 86°
2026-05-07 16:53 51.47595 -0.69527 2819 ft 183 kts 86°
2026-05-07 16:53 51.47606 -0.67569 2554 ft 166 kts 86°
2026-05-07 16:53 51.47618 -0.65855 2352 ft 160 kts 85°
2026-05-07 16:54 51.47629 -0.64058 2121 ft 161 kts 86°
2026-05-07 16:54 51.47642 -0.62270 1901 ft 161 kts 85°
2026-05-07 16:54 51.47653 -0.60472 1678 ft 159 kts 86°
2026-05-07 16:54 51.47661 -0.59383 1546 ft 162 kts 85°
2026-05-07 16:55 51.47672 -0.57598 1314 ft 152 kts 86°
2026-05-07 16:55 51.47682 -0.56000 1097 ft 137 kts 85°
2026-05-07 16:55 51.47692 -0.54554 876 ft 122 kts 88°
2026-05-07 16:55 51.47704 -0.53287 725 ft 114 kts 89°
2026-05-07 16:56 51.47736 -0.51978 542 ft 118 kts 90°
2026-05-07 16:56 51.47755 -0.50678 412 ft 123 kts 91°
2026-05-07 16:56 51.47757 -0.47955 105 ft 119 kts 94°
2026-05-07 16:57 51.47755 -0.46842 92 ft 65 kts 93°
2026-05-07 16:57 51.47755 -0.46400 93 ft 35 kts 90°
2026-05-07 16:57 51.47743 -0.46209 87 ft 17 kts 116°
2026-05-07 16:57 51.47666 -0.46102 89 ft 0 kts 147°
2026-05-07 16:58 51.47636 -0.46072 88 ft 0 kts 148°
2026-05-07 16:59 51.47630 -0.46066 87 ft 3 kts 148°
2026-05-07 16:59 51.47623 -0.46059 88 ft 5 kts 150°
2026-05-07 16:59 51.47614 -0.46053 87 ft 0 kts 155°
2026-05-07 16:59 51.47611 -0.46053 87 ft 1 kts 170°
2026-05-07 17:00 51.47601 -0.46062 85 ft 4 kts 213°
2026-05-07 17:00 51.47592 -0.46153 87 ft 12 kts 276°
2026-05-07 17:00 51.47591 -0.46314 87 ft 16 kts 269°
2026-05-07 17:00 51.47592 -0.46483 88 ft 6 kts 272°
2026-05-07 17:01 51.47594 -0.46538 88 ft 9 kts 272°
2026-05-07 17:01 51.47593 -0.46707 89 ft 14 kts 268°
2026-05-07 17:01 51.47592 -0.46751 88 ft 5 kts 270°
2026-05-07 17:01 51.47589 -0.46851 87 ft 0 kts 261°
2026-05-07 17:02 51.47587 -0.46868 88 ft 6 kts 256°
2026-05-07 17:02 51.47568 -0.46914 90 ft 5 kts 218°
2026-05-07 17:02 51.47567 -0.46916 90 ft 0 kts 217°
2026-05-07 17:02 51.47562 -0.46921 90 ft 5 kts 208°
2026-05-07 17:03 51.47484 -0.46916 86 ft 15 kts 174°
2026-05-07 17:03 51.47442 -0.46903 85 ft 3 kts 168°
2026-05-07 17:03 51.47407 -0.46888 85 ft 7 kts 166°
2026-05-07 17:03 51.47355 -0.46872 86 ft 8 kts 173°
2026-05-07 17:04 51.47299 -0.46865 85 ft 8 kts 177°
2026-05-07 17:04 51.47248 -0.46833 88 ft 8 kts 127°
2026-05-07 17:04 51.47242 -0.46744 84 ft 9 kts 86°
2026-05-07 17:04 51.47242 -0.46636 84 ft 10 kts 92°
2026-05-07 17:05 51.47241 -0.46513 84 ft 12 kts 90°
2026-05-07 17:05 51.47217 -0.46398 86 ft 11 kts 140°
2026-05-07 17:05 51.47182 -0.46360 89 ft 0 kts 146°
2026-05-07 17:06 51.47181 -0.46358 89 ft 1 kts 140°
2026-05-07 17:06 51.47180 -0.46341 87 ft 3 kts 90°
2026-05-07 17:06 51.47197 -0.46292 86 ft 6 kts 53°
2026-05-07 17:06 51.47213 -0.46256 85 ft 2 kts 56°
2026-05-07 17:07 51.47218 -0.46242 89 ft 0 kts 56°